Volver al catálogo

DELTA 1 DEB

ActivoLEO
NORAD 5971·DEBRIS·🇺🇸 United States

Lanzado Jan 26, 1967 desde Vandenberg Space Force Base

Loading…

Próximos Pases (próximas 24 horas)

TLE

ActualizadoSource: Space-Track

Época: Sep 14, 2026, 07:28 UTC

1 05971U 67006E   26257.31133428 -.00000026  00000-0  10513-3 0  9990
2 05971 101.9573 205.5734 0112846 153.5185   4.5046 12.73488539772438

Sigue DELTA 1 DEB en tiempo real con AllMySat

Download on the App Store